Hickory, NC

10:26 AM EDT on April 30, 2017 (GMT -0400)
Hickory Regional

Weather History for KHKY - October, 2013

Change the Weather History Date:

Saturday, October 26, 2013

  Actual Average Record
Temperature  
Mean Temperature 42 °F -  
Max Temperature 55 °F 68 °F 83 °F (1963)
Min Temperature 28 °F 46 °F 28 °F (2013)
Degree Days  
Heating Degree Days 24    
Moisture  
Dew Point 28 °F    
Average Humidity 68    
Maximum Humidity 93    
Minimum Humidity 35    
Precipitation  
Precipitation 0.00 in - - ()
Sea Level Pressure  
Sea Level Pressure 30.22 in    
Wind  
Wind Speed 3 mph (WSW)    
Max Wind Speed 10 mph    
Max Gust Speed 20 mph    
Visibility 8 miles    
Events Fog    
Averages and records for this station are not official NWS values.
T = Trace of Precipitation, MM = Missing Value Source: NWS Daily Summary

Daily Weather History Graph

Daily Weather History Graph

Search for Another Location

Airport or City:

Trip Planner

Search our weather history database for the weather conditions in past years. The results will help you decide how hot, cold, wet, or windy it might be!

Date:

Astronomy

Oct. 26, 2013 Rise Set
Actual Time 7:42 AM EDT 6:36 PM EDT
Civil Twilight 7:16 AM EDT 7:02 PM EDT
Nautical Twilight 6:46 AM EDT 7:32 PM EDT
Astronomical Twilight 6:16 AM EDT 8:01 PM EDT
Moon No Moon Rise 1:55 PM EDT (10/26)
Length of Visible Light 11h 46m
Length of Day
10h 54m
Waning Gibbous, 53% of the Moon is Illuminated
Oct 26
Waning Gibbous
Oct 26
Last Quarter
Nov 3
New
Nov 10
First Quarter
Nov 17
Full

Hourly Weather History & Observations

Time (EDT) Temp. Windchill Dew Point Humidity Pressure Visibility Wind Dir Wind Speed Gust Speed Precip Events Conditions
12:53 AM 32.0 °F - 26.1 °F 79% 30.34 in 10.0 mi Calm Calm - N/A   Clear
1:53 AM 30.9 °F - 25.0 °F 79% 30.33 in 10.0 mi Calm Calm - N/A   Clear
2:53 AM 28.0 °F - 24.1 °F 85% 30.32 in 10.0 mi Calm Calm - N/A   Clear
3:22 AM 28.4 °F - 24.8 °F 86% 30.32 in 1.5 mi Calm Calm - N/A   Partly Cloudy
3:25 AM 28.4 °F - 24.8 °F 86% 30.32 in 0.8 mi Calm Calm - N/A   Mist
3:35 AM 28.4 °F - 26.6 °F 93% 30.31 in 0.2 mi Calm Calm - N/A Fog Light Freezing Fog
3:53 AM 28.9 °F 25.2 °F 27.0 °F 92% 30.30 in 0.2 mi West 3.5 mph - N/A Fog Light Freezing Fog
4:20 AM 28.4 °F 23.3 °F 26.6 °F 93% 30.31 in 1.0 mi WNW 4.6 mph - N/A   Mist
4:26 AM 28.4 °F 24.6 °F 26.6 °F 93% 30.31 in 3.0 mi WNW 3.5 mph - N/A   Mostly Cloudy
4:40 AM 28.4 °F 23.3 °F 26.6 °F 93% 30.31 in 7.0 mi WNW 4.6 mph - N/A   Scattered Clouds
4:53 AM 28.0 °F 22.8 °F 26.1 °F 92% 30.30 in 8.0 mi WNW 4.6 mph - N/A   Clear
5:53 AM 28.0 °F 22.8 °F 25.0 °F 88% 30.29 in 10.0 mi WNW 4.6 mph - N/A   Clear
6:53 AM 28.9 °F 22.8 °F 26.1 °F 89% 30.29 in 10.0 mi WNW 5.8 mph - N/A   Clear
7:53 AM 28.9 °F 23.9 °F 26.1 °F 89% 30.30 in 8.0 mi WNW 4.6 mph - N/A   Clear
8:53 AM 30.0 °F 26.5 °F 28.0 °F 92% 30.30 in 10.0 mi West 3.5 mph - N/A   Clear
9:53 AM 34.0 °F - 30.0 °F 85% 30.30 in 10.0 mi Calm Calm - N/A   Clear
10:53 AM 43.0 °F 39.5 °F 27.0 °F 53% 30.27 in 10.0 mi Variable 5.8 mph - N/A   Clear
11:53 AM 48.0 °F - 26.1 °F 42% 30.25 in 10.0 mi South 9.2 mph - N/A   Clear
12:53 PM 51.1 °F - 28.0 °F 41% 30.22 in 10.0 mi SSW 10.4 mph 19.6 mph N/A   Clear
1:53 PM 53.1 °F - 27.0 °F 37% 30.18 in 10.0 mi SSW 10.4 mph - N/A   Clear
2:53 PM 54.0 °F - 28.0 °F 37% 30.15 in 10.0 mi South 10.4 mph - N/A   Clear
3:53 PM 55.0 °F - 28.0 °F 35% 30.12 in 10.0 mi SSW 9.2 mph - N/A   Clear
4:53 PM 55.0 °F - 28.9 °F 37% 30.10 in 10.0 mi SSW 9.2 mph - N/A   Clear
5:53 PM 54.0 °F - 30.0 °F 40% 30.10 in 10.0 mi South 5.8 mph - N/A   Clear
6:53 PM 51.1 °F - 30.0 °F 44% 30.09 in 10.0 mi SSW 4.6 mph - N/A   Clear
7:53 PM 50.0 °F - 30.9 °F 48% 30.09 in 10.0 mi SW 4.6 mph - N/A   Scattered Clouds
8:53 PM 50.0 °F - 33.1 °F 52% 30.07 in 10.0 mi South 5.8 mph - N/A   Scattered Clouds
9:53 PM 50.0 °F - 33.1 °F 52% 30.06 in 10.0 mi SSW 5.8 mph - N/A   Scattered Clouds
10:53 PM 48.9 °F - 33.1 °F 54% 30.05 in 10.0 mi SSW 5.8 mph - N/A   Scattered Clouds
11:53 PM 46.9 °F - 36.0 °F 66% 30.04 in 10.0 mi Calm Calm - N/A   Mostly Cloudy